Torna al catalogo

STARLINK-35279

AttivoComunicazioniVLEO
NORAD 66069·PAYLOAD·🇺🇸 United States

Lanciato Oct 19, 2025 da Cape Canaveral Space Force Station

Loading…

Prossimi Passaggi (prossime 24 ore)

TLE

AggiornatoSource: CelesTrak SupGP

Epoca: Sep 15, 2026, 03:05 UTC

1 66069C 25235M   26258.12895833 -.00016528  00000+0 -48837-3 0  2580
2 66069  53.1596  84.4877 0001213  83.0914  58.2125 15.34396381    15

Traccia STARLINK-35279 in tempo reale con AllMySat

Download on the App Store